Location: Bremen
(53.0793°N, 8.8017°E)
Time: 23:15:33
(UTC+01:00)

A-11 Canister half - All Passes

Search period start: 06 December 2021 00:00
Search period end: 16 December 2021 00:00
Orbit: 1524 x 1685 km, 47.3° (Epoch: 06 December)

Date Brightness Start Highest point End Pass type
(mag) Time Alt. Az. Time Alt. Az. Time Alt. Az.
06 Dec - 01:26:19 10° SW 01:35:33 42° SSE 01:44:42 10° E visible
06 Dec - 03:29:44 10° WSW 03:39:41 62° S 03:49:26 10° E visible
06 Dec - 05:34:21 10° W 05:44:07 57° SSW 05:53:37 10° ESE visible
06 Dec - 07:39:30 10° W 07:47:48 31° SW 07:55:54 10° SSE visible
06 Dec - 23:05:45 10° SSE 23:11:01 16° SE 23:16:16 10° E night (unlit)
07 Dec - 01:04:45 10° SSW 01:13:55 40° SSE 01:23:00 10° E visible
07 Dec - 03:08:03 10° WSW 03:18:01 62° S 03:27:46 10° E visible
07 Dec - 05:12:39 10° W 05:22:27 58° SSW 05:32:00 10° ESE visible
07 Dec - 07:17:45 10° W 07:26:12 33° SW 07:34:27 10° SSE visible
07 Dec - 22:44:35 10° SSE 22:49:27 15° SE 22:54:17 10° E night (unlit)
08 Dec - 00:43:11 10° SSW 00:52:16 39° SSE 01:01:19 10° E visible
08 Dec - 02:46:23 10° WSW 02:56:20 61° S 03:06:07 10° E visible
08 Dec - 04:50:57 10° W 05:00:48 59° SSW 05:10:23 10° ESE visible
08 Dec - 06:56:01 10° W 07:04:36 34° SW 07:12:58 10° SSE visible
08 Dec - 09:05:47 10° WSW 09:07:02 10° WSW 09:08:18 10° SW daylight
08 Dec - 22:23:30 10° SSE 22:27:53 14° SE 22:32:15 10° E night (unlit)
09 Dec - 00:21:38 10° SSW 00:30:38 38° SE 00:39:36 10° E visible
09 Dec - 02:24:43 10° WSW 02:34:39 61° S 02:44:26 10° E visible
09 Dec - 04:29:15 10° W 04:39:08 59° SSW 04:48:45 10° ESE visible
09 Dec - 06:34:16 10° W 06:42:59 35° SW 06:51:29 10° SSE visible
09 Dec - 08:42:55 10° WSW 08:45:30 11° WSW 08:48:03 10° SW daylight
09 Dec - 22:02:29 10° SE 22:06:19 13° ESE 22:10:09 10° E night (unlit)
10 Dec - 00:00:05 10° SSW 00:09:00 37° SE 00:17:54 10° E visible
10 Dec - 02:03:03 10° WSW 02:12:59 60° SSE 02:22:46 10° E visible
10 Dec - 04:07:33 10° W 04:17:27 60° SSW 04:27:08 10° ESE visible
10 Dec - 06:12:33 10° W 06:21:22 36° SW 06:29:58 10° SSE visible
10 Dec - 08:20:33 10° WSW 08:23:57 12° WSW 08:27:19 10° SW daylight
10 Dec - 21:41:36 10° SE 21:44:45 12° ESE 21:47:55 10° ESE night (unlit)
10 Dec - 23:38:33 10° SSW 23:47:22 36° SE 23:56:12 10° E night (unlit)
11 Dec - 01:41:24 10° WSW 01:51:18 60° SSE 02:01:06 10° E visible
11 Dec - 03:45:52 10° W 03:55:47 61° S 04:05:30 10° ESE visible
11 Dec - 05:50:49 10° W 05:59:44 38° SW 06:08:28 10° SSE visible
11 Dec - 07:58:22 10° W 08:02:24 13° SW 08:06:24 10° SSW daylight
11 Dec - 21:20:58 10° SE 21:23:11 11° ESE 21:25:26 10° ESE night (unlit)
11 Dec - 23:17:02 10° SSW 23:25:44 34° SE 23:34:28 10° E night (unlit)
12 Dec - 01:19:44 10° WSW 01:29:37 59° SSE 01:39:25 10° E visible
12 Dec - 03:24:09 10° W 03:34:06 62° S 03:43:51 10° ESE visible
12 Dec - 05:29:05 10° W 05:38:07 39° SSW 05:46:56 10° SSE visible
12 Dec - 07:36:17 10° W 07:40:51 14° SW 07:45:23 10° SSW visible
12 Dec - 22:55:31 10° SSW 23:04:07 33° SE 23:12:45 10° E night (unlit)
13 Dec - 00:58:05 10° WSW 01:07:57 58° SSE 01:17:45 10° E visible
13 Dec - 03:02:28 10° W 03:12:25 62° S 03:22:13 10° ESE visible
13 Dec - 05:07:22 10° W 05:16:29 40° SSW 05:25:24 10° SSE visible
13 Dec - 07:14:16 10° W 07:19:17 15° SW 07:24:16 10° SSW visible
13 Dec - 22:34:01 10° SSW 22:42:30 32° SE 22:51:00 10° E night (unlit)
14 Dec - 00:36:27 10° WSW 00:46:16 57° SSE 00:56:04 10° E visible
14 Dec - 02:40:47 10° W 02:50:45 63° S 03:00:34 10° ESE visible
14 Dec - 04:45:39 10° W 04:54:51 41° SSW 05:03:52 10° SE visible
14 Dec - 06:52:17 10° W 06:57:44 16° SW 07:03:06 10° SSW visible
14 Dec - 22:12:31 10° SSW 22:20:52 31° SE 22:29:17 10° E night (unlit)
15 Dec - 00:14:48 10° WSW 00:24:36 56° SSE 00:34:23 10° E night (unlit)
15 Dec - 02:19:05 10° W 02:29:04 63° S 02:38:55 10° ESE visible
15 Dec - 04:23:56 10° W 04:33:13 43° SSW 04:42:19 10° SE visible
15 Dec - 06:30:22 10° W 06:36:10 17° SW 06:41:53 10° SSW visible
15 Dec - 21:51:03 10° SSW 21:59:16 30° SE 22:07:32 10° E night (unlit)
